Miscellaneous Local Product
Issued by NWS Hastings, NE

Home | Current Version | Previous Version | Text Only | Print | Product List | Glossary On
Versions: 1 2 3 4 5 6 7 8 9 10 11 12 13 14 15 16 17 18 19 20 21 22 23 24 25 26 27 28 29 30 31 32 33 34 35 36 37 38 39 40 41 42 43 44 45 46 47 48 49 50
000
AXUS43 KGID 281902
MISGRI

GID CWA HOURLY WEATHER ROUNDUP
NATIONAL WEATHER SERVICE HASTINGS NE
200 PM CDT SAT MAR 28 2015

NOTE: "FAIR" INDICATES FEW OR NO CLOUDS BELOW 12,000 FEET WITH NO
SIGNIFICANT WEATHER AND/OR OBSTRUCTIONS TO VISIBILITY.

...SOUTH CENTRAL NEBRASKA...

CITY           SKY/WX    TMP DP  RH WIND       PRES   REMARKS
GRAND ISLAND   SUNNY     55  32  41 SE13      30.04F
HASTINGS       SUNNY     57  32  38 SE12G20   30.02F
KEARNEY        SUNNY     61  34  36 SE15      30.01F
ORD            SUNNY     57  29  34 SE14G21   29.99F
YORK           SUNNY     50  32  50 SE12G20   30.07F
AURORA         SUNNY     55  33  43 SE16      30.05F
LEXINGTON      SUNNY     63  33  32 SE13      29.99F
HOLDREGE       SUNNY     61  32  33 E12G22    30.00F
HEBRON         SUNNY     56  30  37 E8G16     30.06F

...NEBRASKA PANHANDLE...

CITY           SKY/WX    TMP DP  RH WIND       PRES   REMARKS
CHADRON        SUNNY     77  34  21 SW8       29.81F
ALLIANCE       SUNNY     76  30  18 W16G24    29.88F
SCOTTSBLUFF    SUNNY     78  25  14 W23G35    29.88F
SIDNEY         SUNNY     76  27  16 NW12G25   29.94F

...WESTERN AND NORTH CENTRAL NEBRASKA...

CITY           SKY/WX    TMP DP  RH WIND       PRES   REMARKS
VALENTINE      SUNNY     70  35  27 S16       29.88F
AINSWORTH      SUNNY     65  34  31 S15       29.92F
ONEILL         SUNNY     53  32  45 SE16      30.00F
BROKEN BOW     SUNNY     63  35  35 SE15      29.97F
IMPERIAL         N/A     74  34  23 S10G18    29.95F
NORTH PLATTE   SUNNY     72  36  26 S15       29.94F
MCCOOK         SUNNY     73  36  25 S13       29.97F

...EASTERN NEBRASKA...

CITY           SKY/WX    TMP DP  RH WIND       PRES   REMARKS
NORFOLK        SUNNY     49  33  54 SE20      30.05F
SO SIOUX CITY  SUNNY     51  25  36 S16G25    30.11F
TEKAMAH        SUNNY     53  26  35 SE17G28   30.11F
COLUMBUS       SUNNY     50  30  46 SE15      30.09F
ALBION         SUNNY     51  29  42 SE15      30.04F
OMAHA EPPLEY   MOSUNNY   50  28  42 S17       30.13F
OFFUTT AFB     SUNNY     51  28  41 SE10G25   30.12F
MILLARD        SUNNY     49  28  44 SE14G21   30.13F
LINCOLN        SUNNY     52  31  44 SE13      30.11F
NEBRASKA CITY  SUNNY     49  27  42 S12G17    30.13F
BEATRICE       SUNNY     52  32  47 SE13G22   30.09F
FALLS CITY     SUNNY     51  30  44 E17       30.13F

...NORTHERN KANSAS...

CITY           SKY/WX    TMP DP  RH WIND       PRES   REMARKS
GOODLAND       SUNNY     76  29  17 S9G16     29.98F
HILL CITY      SUNNY     68  36  30 SE8       30.00F
NORTON         CLEAR     68  30  24 SE8       29.99F
PHILLIPSBURG   SUNNY     64  36  34 SE13      30.01F
SMITH CENTER   SUNNY     61  34  36 SE10G17   30.02F
BELOIT         SUNNY     63  32  31 SE8       30.02F
HAYS           SUNNY     66  39  37 E12       30.01F
RUSSELL        SUNNY     67  37  33 E13       30.00F
CONCORDIA      SUNNY     60  33  36 E9        30.04F
SALINA         SUNNY     64  37  36 SE13G21   30.04F
TOPEKA         SUNNY     54  31  41 SE13      30.12F



USA.gov is the U.S. government's official web portal to all federal, state and local government web resources and services.